EW6791 Weather Reports


Display with metric or nautical units.
time (UTC)temp
F
wind
direction
speed
MPH
gust
MPH
rain 1hr
in
rain 24hr
in
rain mn
in
humidity
%
barometer
mb
20260503203042 61 162 1.0 7.0 0.00 0.00 0.00 40 1004.9
20260503201539 61 11 3.0 7.0 0.00 0.00 0.00 37 1005.1
20260503200036 59 232 1.0 9.0 0.00 0.00 0.00 42 1005.5
20260503194532 56 75 0.0 3.0 0.00 0.00 0.00 46 1005.7
20260503193026 55 183 1.0 5.0 0.00 0.00 0.00 48 1006.0
20260503191526 54 186 2.0 4.0 0.00 0.00 0.00 48 1006.2
20260503190024 53 141 1.0 4.0 0.00 0.00 0.00 49 1006.4
20260503184527 54 170 1.0 5.0 0.00 0.00 0.00 49 1006.4
20260503183033 54 131 2.0 7.0 0.00 0.00 0.00 49 1006.3
20260503181528 52 188 1.0 5.0 0.00 0.00 0.00 52 1006.4
20260503180018 50 175 1.0 4.0 0.00 0.00 0.00 54 1006.5
20260503174519 49 127 1.0 6.0 0.00 0.00 0.00 54 1006.9
20260503173036 48 160 1.0 4.0 0.00 0.00 0.00 57 1007.2
20260503171513 48 176 0.0 3.0 0.00 0.00 0.00 60 1007.6
20260503150106 54 243 2.0 7.0 0.00 0.00 0.00 46 1008.4
20260503081601 37 147 0.0 2.0 0.00 0.00 0.00 56 1011.6
20260503071558 37 147 0.0 0.0 0.00 0.00 0.00 53 1011.7
20260503060108 43 245 1.0 4.0 0.00 0.00 0.00 47 1012.2
20260503054544 43 248 1.0 5.0 0.00 0.00 0.00 48 1012.3
20260503053042 42 276 3.0 6.0 0.00 0.00 0.00 49 1012.4
20260503051535 39 127 0.0 0.0 0.00 0.00 0.00 51 1012.5
20260503050035 39 120 0.0 3.0 0.00 0.00 0.00 50 1012.5
20260503044604 40 142 0.0 0.0 0.00 0.00 0.00 49 1012.5
20260503043030 40 143 0.0 0.0 0.00 0.00 0.00 48 1012.6
20260503041529 40 139 0.0 0.0 0.00 0.00 0.00 47 1012.6
20260503040027 40 139 0.0 0.0 0.00 0.00 0.00 47 1012.6
20260503034529 41 141 0.0 0.0 0.00 0.00 0.00 46 1012.7
20260503033026 41 141 0.0 0.0 0.00 0.00 0.00 46 1012.8
20260503031524 41 80 0.0 0.0 0.00 0.00 0.00 46 1012.8
20260503030026 41 74 0.0 0.0 0.00 0.00 0.00 45 1012.9
20260503024522 42 148 0.0 0.0 0.00 0.00 0.00 44 1013.1
20260503023021 42 149 0.0 2.0 0.00 0.00 0.00 45 1013.2
20260503021524 42 145 1.0 3.0 0.00 0.00 0.00 45 1013.1
20260503020032 42 179 0.0 0.0 0.00 0.00 0.00 45 1013.0
20260503014520 42 174 0.0 0.0 0.00 0.00 0.00 44 1012.9
20260503013019 42 240 0.0 0.0 0.00 0.00 0.00 45 1012.9
20260503011518 43 240 0.0 0.0 0.00 0.00 0.00 43 1012.9
20260503010017 44 240 0.0 0.0 0.00 0.00 0.00 41 1012.9
20260503004516 46 240 0.0 0.0 0.00 0.00 0.00 37 1012.8
20260503003027 47 181 0.0 2.0 0.00 0.00 0.00 36 1012.8
20260503001515 47 113 0.0 3.0 0.00 0.00 0.00 33 1012.8
20260503000026 48 167 1.0 3.0 0.00 0.00 0.00 32 1012.8
20260502234517 49 130 0.0 2.0 0.00 0.00 0.00 31 1012.9
20260502233013 50 193 0.0 2.0 0.00 0.00 0.00 32 1012.9
20260502231511 49 192 1.0 3.0 0.00 0.00 0.00 31 1013.0
20260502230010 49 65 0.0 3.0 0.00 0.00 0.00 32 1013.2
20260502224509 50 163 0.0 4.0 0.00 0.00 0.00 28 1013.3
20260502223022 52 172 1.0 4.0 0.00 0.00 0.00 25 1013.4
20260502221506 52 191 1.0 5.0 0.00 0.00 0.00 28 1013.5
20260502220006 52 276 1.0 5.0 0.00 0.00 0.00 28 1013.7
20260502214503 51 290 1.0 4.0 0.00 0.00 0.00 29 1013.8
20260502213002 51 241 3.0 6.0 0.00 0.00 0.00 25 1013.9
20260502211600 50 181 2.0 6.0 0.00 0.00 0.00 28 1014.0
20260502210057 50 172 1.0 7.0 0.00 0.00 0.00 30 1014.2
20260502204556 50 262 3.0 7.0 0.00 0.00 0.00 25 1014.3